Location: Fort Wayne
(41.1310°N, 85.1290°W)
Time: 13:31:31
(UTC-04:00)

Cosmos 1953 - Visible Passes

Search period start: 25 May 2015 00:00
Search period end: 04 June 2015 00:00
Orbit: 546 x 564 km, 82.5° (Epoch: 24 May)

Date Brightness Start Highest point End Pass type
(mag) Time Alt. Az. Time Alt. Az. Time Alt. Az.
25 May 4.4 00:51:14 10° NW 00:53:54 20° W 00:53:54 20° W visible
25 May 3.3 23:11:28 10° NNE 23:15:11 32° ENE 23:15:30 32° E visible
26 May 4.6 00:48:40 10° NW 00:51:20 18° W 00:51:20 18° W visible
26 May 3.1 23:08:37 10° N 23:12:26 37° ENE 23:12:56 36° E visible
27 May 4.7 00:46:09 10° NW 00:48:43 16° W 00:48:46 16° W visible
27 May 2.9 23:05:47 10° N 23:09:42 42° ENE 23:10:23 39° ESE visible
28 May 4.8 00:43:42 10° NW 00:45:54 14° W 00:46:13 14° W visible
28 May 2.7 23:02:57 10° N 23:06:56 49° E 23:07:51 40° ESE visible
29 May 5.0 00:41:22 10° WNW 00:43:05 12° W 00:43:41 12° W visible
29 May 2.5 23:00:08 10° N 23:04:11 56° E 23:05:19 41° SE visible
30 May 5.1 00:39:21 10° WNW 00:40:16 10° W 00:40:55 10° W visible
30 May 2.4 22:57:19 10° N 23:01:25 65° E 23:02:49 38° SSE visible
31 May 2.3 22:54:32 10° N 22:58:38 75° E 23:00:20 34° SSE visible
01 Jun 2.3 22:51:44 10° N 22:55:52 86° E 22:57:51 29° S visible
02 Jun 2.4 22:48:57 10° N 22:53:05 82° W 22:55:24 25° S visible
03 Jun 2.5 22:46:11 10° NNW 22:50:17 71° W 22:52:58 20° S visible
